Regional Weather Roundup
Issued by NWS Northern Indiana

Home | Current Version | Previous Version | Graphics & Text | Print | Product List | Glossary Off
Versions: 1 2 3 4 5 6 7 8 9 10 11 12 13 14 15 16 17 18 19 20 21 22 23 24 25 26 27 28 29 30 31 32 33 34 35 36 37 38 39 40 41 42 43 44 45 46 47 48 49 50

000
ASUS43 KIWX 141710
RWRIWX

KIWX WEATHER ROUNDUP
NATIONAL WEATHER SERVICE NORTHERN INDIANA
1200 PM EST SUN FEB 14 2016

NOTE: "FAIR" INDICATES FEW OR NO CLOUDS BELOW 12,000 FEET WITH NO
SIGNIFICANT WEATHER AND/OR OBSTRUCTIONS TO VISIBILITY.

* THESE STATIONS ARE NOT UNDER NWS QUALITY CONTROL. THEY ALSO MAY NOT
  REPORT WEATHER SUCH AS PRECIPITATION OR FOG.

INZ001>027-141800-
NORTHERN INDIANA

CITY           SKY/WX    TMP DP  RH WIND       PRES   REMARKS
GARY*          CLOUDY    19   1  45 SE17      30.31S WCI   4
VALPARAISO     CLOUDY    16   4  59 SE12      30.30F WCI   3
MICHIGAN CITY* CLOUDY    16   3  57 SE7G17    30.30F WCI   6
LAPORTE*       CLOUDY    16   6  64 SE15      30.30F WCI   1
KNOX*          CLOUDY    18   3  53 SE15      30.30F WCI   3
SOUTH BEND     CLOUDY    13   3  64 SE17      30.32R WCI  -4
ELKHART*       CLOUDY    16   3  57 MISG        N/A
GOSHEN         CLOUDY    15   3  59 S21       30.34R WCI  -2
MONTICELLO*    CLOUDY    18   1  46 SE8       30.29F WCI   8
LOGANSPORT*    CLOUDY    19   1  45 SE17      30.30F WCI   4
ROCHESTER*     CLOUDY    19   3  49 SE14      30.31F WCI   6
WARSAW*        CLOUDY    18   5  57 SE7G17    30.32S WCI   8
ANGOLA*        SUNNY     12   3  67 SE14      30.31F WCI  -3
FORT WAYNE     CLOUDY    18   5  57 SE14      30.36F WCI   4
HUNTINGTON*    CLOUDY    15   0  53 SE13      30.34R WCI   1
PERU/GRISSOM   CLOUDY    17   5  59 SE16      30.28R WCI   2
MARION*        CLOUDY    16  -2  45 SE15      30.32S WCI   1

$$
INZ028>050-141800-
CENTRAL INDIANA

CITY           SKY/WX    TMP DP  RH WIND       PRES   REMARKS
LAFAYETTE      CLOUDY    17   7  64 SE13      30.29S WCI   4
KOKOMO*        CLOUDY    18   5  57 SE17      30.30F WCI   2
MUNCIE*        CLOUDY    18   5  57 SE10      30.31F WCI   6
INDIANAPOLIS   FLURRIES  18   9  68 SE18      30.27F WCI   2

$$
MIZ043>046-050>051-056>058-064>065-071>073-077>080-141800-
SOUTHWEST LOWER MICHIGAN

CITY           SKY/WX    TMP DP  RH WIND       PRES   REMARKS
BATTLE CREEK   CLOUDY    14   1  56 S13       30.31F WCI   0
BENTON HARBOR  CLOUDY    16   4  59 SE14G23   30.32R WCI   2
COLDWATER*     SUNNY     15   2  56 SE14      30.31F WCI   0
HILLSDALE*     CLOUDY    15   2  57 SE10G16   30.30F WCI   2
HOLLAND        CLOUDY    13   2  61 SE15      30.33F WCI  -3
GRAND RAPIDS   CLOUDY    16   2  54 E17       30.33F WCI   0
KALAMAZOO      MOSUNNY   14   1  56 S9        30.32F WCI   2
STURGIS*       CLOUDY    13   3  64 SE16G23   30.32S WCI  -3
THREE RIVERS*  FAIR      15   4  61 SE13      30.34R WCI   1

$$
OHZ001>008-015>018-024>025-141800-
NORTHWEST OHIO

CITY           SKY/WX    TMP DP  RH WIND       PRES   REMARKS
DEFIANCE       MOSUNNY   18   5  57 SE9       30.36F WCI   7
FINDLAY        CLOUDY    18   6  59 S14       30.37F WCI   4
TOLEDO EXPRESS CLOUDY    16   2  54 SE10      30.39F WCI   4
TOLEDO METCALF CLOUDY    18   2  49 SE13      30.42F WCI   5
LIMA           SUNNY     18   6  59 SE14      30.34F WCI   4

$$
AND FOR LAKE MICHIGAN COASTAL AND OPEN LAKE BUOY OBSERVATIONS

STATION/POSITION TEMP    WIND        PRES    VSBY  WAVE
                 AIR SEA DIR/SP/G                  HT/PER
                 (F)     (DEG/KT/KT) (MB)    (MI)  (FT/S)
CALUMET HARBOR    16     140/ 12/ 19 1025.2R
MICHIGAN CITY     13     100/ 11/ 14   N/A
BURNS HARBOR      15     140/ 13/ 19 1026.4F
SAINT JOSEPH      17     150/  4/ 11 1027.4R

$$
&&



USA.gov is the U.S. government's official web portal to all federal, state and local government web resources and services.